Powrót do katalogu

IOD2_STARTICAL

AktywnyNaukaSSO
NORAD 64538·PAYLOAD·🇪🇸 Spain

Wystrzelony Jun 23, 2025 z Vandenberg Space Force Base

Loading…

Następne Przeloty (najbliższe 24 godziny)

TLE

ŚwieżeSource: Space-Track

Epoka: Sep 13, 2026, 21:12 UTC

1 64538U 25135L   26256.88398641  .00003108  00000-0  14352-3 0  9990
2 64538  97.4777  10.7338 0003604 210.6290 149.4735 15.20949953 68301

Śledź IOD2_STARTICAL w czasie rzeczywistym z AllMySat

Download on the App Store